N1764T CYZX-KBTV

Flight info

Callsign N1764T
Flight time N/A
Altitude 8500
Route CCN2 DCT KMVM DCT KBML
Aircraft P28A/L-SDFG/C

Departure

Time N/A
Airport CFB Greenwood (CYZX)

Arrival

Time 2026-05-08 20:20
Airport Patrick Leahy Burlington International Airport (KBTV)
Time Latitude Longitude Altitude Speed Heading
2026-05-08 17:24 44.64921 -67.05534 8531 ft 95 kts 268°
2026-05-08 17:24 44.64890 -67.06452 8531 ft 94 kts 268°
2026-05-08 17:24 44.64866 -67.07370 8531 ft 94 kts 268°
2026-05-08 17:25 44.64846 -67.08282 8532 ft 93 kts 269°
2026-05-08 17:25 44.64828 -67.09190 8532 ft 93 kts 269°
2026-05-08 17:25 44.64810 -67.10098 8532 ft 93 kts 269°
2026-05-08 17:25 44.64794 -67.11008 8532 ft 94 kts 269°
2026-05-08 17:26 44.64777 -67.11919 8532 ft 93 kts 269°
2026-05-08 17:26 44.64761 -67.12818 8516 ft 93 kts 269°
2026-05-08 17:26 44.64744 -67.13734 8424 ft 95 kts 269°
2026-05-08 17:26 44.64726 -67.14662 8309 ft 96 kts 269°
2026-05-08 17:27 44.64708 -67.15603 8201 ft 96 kts 269°
2026-05-08 17:27 44.64689 -67.16554 8072 ft 98 kts 269°
2026-05-08 17:27 44.64668 -67.17506 7945 ft 99 kts 269°
2026-05-08 17:27 44.64647 -67.18487 7784 ft 102 kts 269°
2026-05-08 17:28 44.64623 -67.19479 7656 ft 101 kts 270°
2026-05-08 17:28 44.64593 -67.20463 7512 ft 101 kts 269°
2026-05-08 17:28 44.64562 -67.21469 7365 ft 102 kts 269°
2026-05-08 17:28 44.64530 -67.22440 7258 ft 100 kts 269°
2026-05-08 17:29 44.64495 -67.23430 7111 ft 102 kts 269°
2026-05-08 17:29 44.64455 -67.24411 7063 ft 99 kts 269°
2026-05-08 17:29 44.64418 -67.25398 6914 ft 103 kts 269°
2026-05-08 17:29 44.64381 -67.26399 6785 ft 101 kts 269°
2026-05-08 17:30 44.64341 -67.27329 6912 ft 83 kts 269°
2026-05-08 17:30 44.64297 -67.28092 7132 ft 78 kts 268°
2026-05-08 17:30 44.64256 -67.28854 7345 ft 78 kts 269°
2026-05-08 17:30 44.64215 -67.29622 7562 ft 76 kts 269°
2026-05-08 17:31 44.64183 -67.30324 7735 ft 77 kts 270°
2026-05-08 17:31 44.64155 -67.31055 7922 ft 72 kts 270°
2026-05-08 17:31 44.64126 -67.31788 8031 ft 77 kts 270°
2026-05-08 17:31 44.64100 -67.32512 8214 ft 74 kts 270°
2026-05-08 17:32 44.64074 -67.33240 8359 ft 74 kts 269°
2026-05-08 17:32 44.64048 -67.33975 8494 ft 76 kts 270°
2026-05-08 17:32 44.64026 -67.34720 8565 ft 84 kts 271°
2026-05-08 17:32 44.64010 -67.35577 8545 ft 93 kts 271°
2026-05-08 17:33 44.63994 -67.36508 8526 ft 96 kts 269°
2026-05-08 17:33 44.63971 -67.37430 8559 ft 96 kts 269°
2026-05-08 17:33 44.63950 -67.38361 8581 ft 97 kts 269°
2026-05-08 17:33 44.63927 -67.39343 8526 ft 103 kts 269°
2026-05-08 17:34 44.63901 -67.40322 8551 ft 99 kts 269°
2026-05-08 17:34 44.63875 -67.41290 8555 ft 99 kts 269°
2026-05-08 17:34 44.63850 -67.42254 8559 ft 99 kts 269°
2026-05-08 17:34 44.63827 -67.43227 8561 ft 100 kts 269°
2026-05-08 17:35 44.63805 -67.44203 8561 ft 100 kts 269°
2026-05-08 17:35 44.63783 -67.45182 8560 ft 100 kts 269°
2026-05-08 17:35 44.63760 -67.46159 8564 ft 100 kts 269°
2026-05-08 17:35 44.63738 -67.47138 8558 ft 100 kts 269°
2026-05-08 17:36 44.63717 -67.48109 8558 ft 100 kts 269°
2026-05-08 17:36 44.63696 -67.49080 8552 ft 99 kts 269°
2026-05-08 17:36 44.63671 -67.50048 8558 ft 99 kts 269°
2026-05-08 17:36 44.63649 -67.51011 8560 ft 99 kts 269°
2026-05-08 17:37 44.63633 -67.51649 8560 ft 99 kts 269°
2026-05-08 17:37 44.63601 -67.52924 8560 ft 99 kts 269°
2026-05-08 17:37 44.63585 -67.53574 8564 ft 99 kts 269°
2026-05-08 17:37 44.63561 -67.54540 8560 ft 99 kts 269°
2026-05-08 17:38 44.63529 -67.55806 8559 ft 98 kts 269°
2026-05-08 17:38 44.63514 -67.56454 8563 ft 98 kts 270°
2026-05-08 17:38 44.63492 -67.57422 8561 ft 99 kts 269°
2026-05-08 17:38 44.63460 -67.58385 8562 ft 99 kts 268°
2026-05-08 17:39 44.63424 -67.59352 8558 ft 99 kts 268°
2026-05-08 17:39 44.63387 -67.60304 8557 ft 99 kts 268°
2026-05-08 17:39 44.63349 -67.61264 8558 ft 98 kts 268°
2026-05-08 17:39 44.63310 -67.62227 8562 ft 99 kts 268°
2026-05-08 17:40 44.63274 -67.63189 8557 ft 98 kts 268°
2026-05-08 17:40 44.63237 -67.64144 8553 ft 98 kts 268°
2026-05-08 17:40 44.63199 -67.65103 8559 ft 98 kts 268°
2026-05-08 17:40 44.63161 -67.66051 8559 ft 97 kts 268°
2026-05-08 17:41 44.63123 -67.66994 8559 ft 97 kts 268°
2026-05-08 17:41 44.63083 -67.67940 8567 ft 97 kts 268°
2026-05-08 17:41 44.63045 -67.68889 8561 ft 97 kts 268°
2026-05-08 17:41 44.63006 -67.69836 8559 ft 97 kts 268°
2026-05-08 17:42 44.62967 -67.70770 8556 ft 97 kts 268°
2026-05-08 17:42 44.62929 -67.71723 8565 ft 99 kts 269°
2026-05-08 17:42 44.62892 -67.72688 8561 ft 98 kts 268°
2026-05-08 17:42 44.62856 -67.73643 8556 ft 97 kts 268°
2026-05-08 17:43 44.62818 -67.74589 8557 ft 97 kts 268°
2026-05-08 17:43 44.62781 -67.75538 8569 ft 98 kts 269°
2026-05-08 17:43 44.62742 -67.76497 8557 ft 98 kts 268°
2026-05-08 17:43 44.62703 -67.77446 8560 ft 97 kts 268°
2026-05-08 17:44 44.62664 -67.78391 8556 ft 97 kts 268°
2026-05-08 17:44 44.62627 -67.79339 8566 ft 97 kts 269°
2026-05-08 17:44 44.62585 -67.80298 8581 ft 99 kts 268°
2026-05-08 17:44 44.62544 -67.81261 8567 ft 98 kts 269°
2026-05-08 17:45 44.62505 -67.82217 8557 ft 98 kts 268°
2026-05-08 17:45 44.62466 -67.83165 8563 ft 97 kts 268°
2026-05-08 17:45 44.62427 -67.84098 8565 ft 96 kts 268°
2026-05-08 17:45 44.62386 -67.85035 8566 ft 96 kts 268°
2026-05-08 17:46 44.62346 -67.85973 8568 ft 97 kts 269°
2026-05-08 17:46 44.62307 -67.86915 8575 ft 98 kts 268°
2026-05-08 17:46 44.62267 -67.87870 8570 ft 98 kts 268°
2026-05-08 17:46 44.62227 -67.88825 8569 ft 98 kts 268°
2026-05-08 17:47 44.62186 -67.89777 8568 ft 98 kts 268°
2026-05-08 17:47 44.62146 -67.90728 8563 ft 97 kts 268°
2026-05-08 17:47 44.62106 -67.91676 8573 ft 98 kts 268°
2026-05-08 17:47 44.62078 -67.92310 8582 ft 99 kts 269°
2026-05-08 17:48 44.62027 -67.93614 8579 ft 101 kts 268°
2026-05-08 17:48 44.61987 -67.94601 8573 ft 102 kts 269°
2026-05-08 17:48 44.61950 -67.95576 8566 ft 101 kts 269°
2026-05-08 17:48 44.61910 -67.96556 8563 ft 100 kts 269°
2026-05-08 17:49 44.61871 -67.97525 8561 ft 99 kts 268°
2026-05-08 17:49 44.61830 -67.98484 8562 ft 98 kts 268°
2026-05-08 17:49 44.61789 -67.99439 8565 ft 98 kts 268°
2026-05-08 17:49 44.61746 -68.00393 8569 ft 98 kts 268°
2026-05-08 17:50 44.61705 -68.01345 8570 ft 97 kts 268°
2026-05-08 17:50 44.61663 -68.02297 8569 ft 98 kts 268°
2026-05-08 17:50 44.61621 -68.03246 8571 ft 97 kts 269°
2026-05-08 17:50 44.61578 -68.04195 8573 ft 97 kts 268°
2026-05-08 17:51 44.61535 -68.05147 8570 ft 97 kts 268°
2026-05-08 17:51 44.61493 -68.06076 8569 ft 97 kts 268°
2026-05-08 17:51 44.61446 -68.07014 8567 ft 96 kts 268°
2026-05-08 17:51 44.61402 -68.07948 8567 ft 96 kts 268°
2026-05-08 17:52 44.61360 -68.08879 8556 ft 95 kts 268°
2026-05-08 17:52 44.61317 -68.09811 8564 ft 95 kts 268°
2026-05-08 17:52 44.61231 -68.11693 8578 ft 98 kts 268°
2026-05-08 17:53 44.61188 -68.12647 8577 ft 98 kts 269°
2026-05-08 17:53 44.61145 -68.13613 8573 ft 100 kts 268°
2026-05-08 17:53 44.61103 -68.14580 8568 ft 99 kts 269°
2026-05-08 17:53 44.61060 -68.15539 8565 ft 97 kts 269°
2026-05-08 17:54 44.61017 -68.16489 8565 ft 98 kts 268°
2026-05-08 17:54 44.60973 -68.17427 8570 ft 97 kts 268°
2026-05-08 17:54 44.60929 -68.18379 8570 ft 98 kts 269°
2026-05-08 17:54 44.60888 -68.19327 8576 ft 98 kts 269°
2026-05-08 17:55 44.60852 -68.20291 8573 ft 99 kts 269°
2026-05-08 17:55 44.60809 -68.21255 8567 ft 98 kts 268°
2026-05-08 17:55 44.60766 -68.22200 8564 ft 97 kts 268°
2026-05-08 17:55 44.60723 -68.23148 8569 ft 98 kts 268°
2026-05-08 17:56 44.60682 -68.24097 8568 ft 97 kts 268°
2026-05-08 17:56 44.60637 -68.25052 8576 ft 99 kts 268°
2026-05-08 17:56 44.60595 -68.26010 8567 ft 98 kts 268°
2026-05-08 17:56 44.60556 -68.26964 8573 ft 98 kts 269°
2026-05-08 17:57 44.60517 -68.27920 8571 ft 98 kts 269°
2026-05-08 17:57 44.60476 -68.28877 8560 ft 98 kts 268°
2026-05-08 17:57 44.60434 -68.29832 8563 ft 98 kts 268°
2026-05-08 17:57 44.60392 -68.30776 8566 ft 97 kts 268°
2026-05-08 17:58 44.60352 -68.31707 8574 ft 97 kts 268°
2026-05-08 17:58 44.60312 -68.32656 8570 ft 97 kts 268°
2026-05-08 17:58 44.60270 -68.33605 8569 ft 97 kts 268°
2026-05-08 17:58 44.60229 -68.34549 8570 ft 97 kts 268°
2026-05-08 17:59 44.60189 -68.35495 8570 ft 97 kts 269°
2026-05-08 17:59 44.60149 -68.36440 8570 ft 97 kts 269°
2026-05-08 17:59 44.60110 -68.37392 8572 ft 98 kts 269°
2026-05-08 17:59 44.60070 -68.38342 8571 ft 97 kts 268°
2026-05-08 18:00 44.60030 -68.39289 8572 ft 97 kts 269°
2026-05-08 18:00 44.59951 -68.41200 8572 ft 98 kts 269°
2026-05-08 18:00 44.59914 -68.42156 8564 ft 98 kts 269°
2026-05-08 18:01 44.59876 -68.43109 8567 ft 98 kts 269°
2026-05-08 18:01 44.59839 -68.44066 8568 ft 98 kts 269°
2026-05-08 18:01 44.59801 -68.45013 8568 ft 97 kts 269°
2026-05-08 18:01 44.59763 -68.45943 8569 ft 97 kts 268°
2026-05-08 18:02 44.59726 -68.46888 8569 ft 97 kts 269°
2026-05-08 18:02 44.59700 -68.47525 8569 ft 97 kts 268°
2026-05-08 18:02 44.59649 -68.48772 8569 ft 96 kts 269°
2026-05-08 18:02 44.59612 -68.49708 8563 ft 96 kts 269°
2026-05-08 18:03 44.59571 -68.50646 8573 ft 96 kts 268°
2026-05-08 18:03 44.59534 -68.51587 8576 ft 97 kts 269°
2026-05-08 18:03 44.59498 -68.52535 8561 ft 97 kts 269°
2026-05-08 18:03 44.59459 -68.53479 8568 ft 97 kts 268°
2026-05-08 18:04 44.59419 -68.54420 8570 ft 97 kts 268°
2026-05-08 18:04 44.59380 -68.55360 8569 ft 97 kts 268°
2026-05-08 18:04 44.59342 -68.56302 8569 ft 96 kts 269°
2026-05-08 18:04 44.59308 -68.57228 8568 ft 96 kts 269°
2026-05-08 18:05 44.59272 -68.58161 8572 ft 96 kts 269°
2026-05-08 18:05 44.59236 -68.59102 8569 ft 97 kts 269°
2026-05-08 18:05 44.59200 -68.60045 8569 ft 97 kts 269°
2026-05-08 18:05 44.59163 -68.60984 8567 ft 96 kts 268°
2026-05-08 18:06 44.59132 -68.61921 8563 ft 96 kts 269°
2026-05-08 18:06 44.59099 -68.62858 8574 ft 97 kts 269°
2026-05-08 18:06 44.59065 -68.63803 8574 ft 97 kts 269°
2026-05-08 18:06 44.59029 -68.64754 8573 ft 98 kts 269°
2026-05-08 18:07 44.58993 -68.65706 8553 ft 97 kts 269°
2026-05-08 18:07 44.58958 -68.66630 8567 ft 96 kts 269°
2026-05-08 18:07 44.58920 -68.67564 8567 ft 96 kts 269°
2026-05-08 18:07 44.58885 -68.68493 8579 ft 95 kts 269°
2026-05-08 18:08 44.58849 -68.69426 8572 ft 97 kts 268°
2026-05-08 18:08 44.58814 -68.70373 8579 ft 97 kts 269°
2026-05-08 18:08 44.58780 -68.71313 8577 ft 96 kts 269°
2026-05-08 18:08 44.58746 -68.72254 8575 ft 96 kts 269°
2026-05-08 18:09 44.58712 -68.73189 8579 ft 96 kts 269°
2026-05-08 18:09 44.58680 -68.74122 8580 ft 96 kts 268°
2026-05-08 18:09 44.58644 -68.75062 8575 ft 96 kts 269°
2026-05-08 18:09 44.58613 -68.75991 8578 ft 95 kts 268°
2026-05-08 18:10 44.58577 -68.76914 8576 ft 94 kts 268°
2026-05-08 18:10 44.58541 -68.77832 8578 ft 94 kts 268°
2026-05-08 18:10 44.58505 -68.78743 8590 ft 95 kts 269°
2026-05-08 18:10 44.58476 -68.79677 8581 ft 96 kts 269°
2026-05-08 18:11 44.58443 -68.80619 8601 ft 98 kts 268°
2026-05-08 18:11 44.58414 -68.81583 8581 ft 99 kts 269°
2026-05-08 18:11 44.58383 -68.82545 8571 ft 97 kts 268°
2026-05-08 18:11 44.58351 -68.83485 8572 ft 96 kts 269°
2026-05-08 18:12 44.58318 -68.84412 8568 ft 95 kts 268°
2026-05-08 18:12 44.58284 -68.85337 8583 ft 96 kts 269°
2026-05-08 18:12 44.58251 -68.86279 8592 ft 98 kts 269°
2026-05-08 18:12 44.58220 -68.87198 8563 ft 94 kts 269°
2026-05-08 18:13 44.58189 -68.88118 8573 ft 95 kts 268°
2026-05-08 18:13 44.58154 -68.89034 8577 ft 94 kts 268°
2026-05-08 18:13 44.58124 -68.89955 8597 ft 96 kts 269°
2026-05-08 18:13 44.58094 -68.90900 8587 ft 97 kts 269°
2026-05-08 18:14 44.58062 -68.91851 8578 ft 97 kts 269°
2026-05-08 18:14 44.58032 -68.92798 8572 ft 97 kts 269°
2026-05-08 18:14 44.57999 -68.93728 8560 ft 95 kts 269°
2026-05-08 18:14 44.57969 -68.94651 8578 ft 95 kts 269°
2026-05-08 18:15 44.57937 -68.95581 8576 ft 96 kts 269°
2026-05-08 18:15 44.57907 -68.96514 8583 ft 96 kts 269°
2026-05-08 18:15 44.57883 -68.97452 8580 ft 96 kts 269°
2026-05-08 18:15 44.57855 -68.98389 8573 ft 96 kts 269°
2026-05-08 18:16 44.57827 -68.99313 8576 ft 96 kts 269°
2026-05-08 18:16 44.57798 -69.00251 8588 ft 97 kts 269°
2026-05-08 18:16 44.57769 -69.01194 8571 ft 96 kts 269°
2026-05-08 18:16 44.57737 -69.02132 8580 ft 95 kts 268°
2026-05-08 18:17 44.57708 -69.03063 8574 ft 95 kts 269°
2026-05-08 18:17 44.57674 -69.03989 8573 ft 95 kts 269°
2026-05-08 18:17 44.57647 -69.04913 8566 ft 94 kts 269°
2026-05-08 18:17 44.57621 -69.05827 8567 ft 93 kts 268°
2026-05-08 18:18 44.57595 -69.06726 8577 ft 93 kts 269°
2026-05-08 18:18 44.57569 -69.07637 8580 ft 94 kts 269°
2026-05-08 18:18 44.57541 -69.08557 8574 ft 94 kts 268°
2026-05-08 18:18 44.57514 -69.09473 8575 ft 94 kts 269°
2026-05-08 18:19 44.57488 -69.10391 8576 ft 94 kts 269°
2026-05-08 18:19 44.57461 -69.11310 8582 ft 94 kts 269°
2026-05-08 18:19 44.57437 -69.12225 8580 ft 94 kts 269°
2026-05-08 18:19 44.57408 -69.13144 8574 ft 94 kts 269°
2026-05-08 18:20 44.57382 -69.14055 8581 ft 94 kts 269°
2026-05-08 18:20 44.57358 -69.14966 8585 ft 95 kts 269°
2026-05-08 18:20 44.57333 -69.15894 8579 ft 95 kts 269°
2026-05-08 18:20 44.57308 -69.16834 8588 ft 96 kts 269°
2026-05-08 18:21 44.57283 -69.17768 8579 ft 96 kts 269°
2026-05-08 18:21 44.57259 -69.18687 8582 ft 96 kts 269°
2026-05-08 18:21 44.57231 -69.19622 8588 ft 97 kts 269°
2026-05-08 18:21 44.57207 -69.20561 8575 ft 96 kts 269°
2026-05-08 18:22 44.57184 -69.21494 8580 ft 96 kts 269°
2026-05-08 18:22 44.57162 -69.22429 8579 ft 96 kts 269°
2026-05-08 18:22 44.57138 -69.23359 8574 ft 95 kts 269°
2026-05-08 18:22 44.57114 -69.24287 8576 ft 95 kts 269°
2026-05-08 18:23 44.57089 -69.25212 8574 ft 95 kts 269°
2026-05-08 18:23 44.57064 -69.26125 8577 ft 95 kts 269°
2026-05-08 18:23 44.57040 -69.27047 8577 ft 94 kts 269°
2026-05-08 18:23 44.57016 -69.27965 8579 ft 94 kts 269°
2026-05-08 18:24 44.56994 -69.28881 8578 ft 94 kts 269°
2026-05-08 18:24 44.56972 -69.29797 8581 ft 94 kts 269°
2026-05-08 18:24 44.56950 -69.30712 8578 ft 94 kts 269°
2026-05-08 18:24 44.56929 -69.31619 8578 ft 93 kts 269°
2026-05-08 18:25 44.56907 -69.32527 8584 ft 94 kts 269°
2026-05-08 18:25 44.56888 -69.33439 8575 ft 93 kts 269°
2026-05-08 18:25 44.56869 -69.34350 8579 ft 94 kts 269°
2026-05-08 18:25 44.56847 -69.35264 8583 ft 94 kts 269°
2026-05-08 18:26 44.56832 -69.35874 8583 ft 94 kts 269°
2026-05-08 18:26 44.56810 -69.36791 8577 ft 94 kts 269°
2026-05-08 18:26 44.56780 -69.37999 8573 ft 93 kts 269°
2026-05-08 18:26 44.56765 -69.38601 8579 ft 93 kts 269°
2026-05-08 18:27 44.56743 -69.39509 8579 ft 93 kts 269°
2026-05-08 18:27 44.56729 -69.40110 8580 ft 93 kts 269°
2026-05-08 18:27 44.56701 -69.41327 8578 ft 93 kts 269°
2026-05-08 18:27 44.56681 -69.42235 8577 ft 93 kts 269°
2026-05-08 18:28 44.56662 -69.43145 8584 ft 94 kts 269°
2026-05-08 18:28 44.56643 -69.44062 8581 ft 94 kts 269°
2026-05-08 18:28 44.56625 -69.44979 8578 ft 94 kts 269°
2026-05-08 18:28 44.56606 -69.45887 8575 ft 93 kts 269°
2026-05-08 18:29 44.56585 -69.46792 8573 ft 92 kts 269°
2026-05-08 18:29 44.56566 -69.47692 8579 ft 92 kts 269°
2026-05-08 18:29 44.56548 -69.48597 8579 ft 93 kts 269°
2026-05-08 18:29 44.56526 -69.49495 8591 ft 94 kts 269°
2026-05-08 18:30 44.56510 -69.50418 8581 ft 95 kts 269°
2026-05-08 18:30 44.56491 -69.51339 8578 ft 95 kts 269°
2026-05-08 18:30 44.56472 -69.52263 8577 ft 95 kts 269°
2026-05-08 18:30 44.56453 -69.53184 8575 ft 94 kts 269°
2026-05-08 18:31 44.56434 -69.54104 8578 ft 94 kts 269°
2026-05-08 18:31 44.56414 -69.55020 8575 ft 94 kts 269°
2026-05-08 18:31 44.56393 -69.55931 8578 ft 93 kts 269°
2026-05-08 18:31 44.56372 -69.56841 8585 ft 94 kts 269°
2026-05-08 18:32 44.56353 -69.57759 8583 ft 94 kts 269°
2026-05-08 18:32 44.56333 -69.58680 8584 ft 95 kts 269°
2026-05-08 18:32 44.56318 -69.59603 8578 ft 95 kts 269°
2026-05-08 18:32 44.56300 -69.60521 8572 ft 94 kts 269°
2026-05-08 18:33 44.56285 -69.61439 8574 ft 95 kts 269°
2026-05-08 18:33 44.56267 -69.62360 8585 ft 96 kts 269°
2026-05-08 18:33 44.56250 -69.63297 8577 ft 96 kts 269°
2026-05-08 18:33 44.56230 -69.64226 8575 ft 95 kts 269°
2026-05-08 18:34 44.56211 -69.65154 8573 ft 95 kts 269°
2026-05-08 18:34 44.56192 -69.66072 8577 ft 93 kts 269°
2026-05-08 18:34 44.56173 -69.66983 8576 ft 93 kts 269°
2026-05-08 18:34 44.56156 -69.67892 8573 ft 93 kts 269°
2026-05-08 18:35 44.56141 -69.68802 8581 ft 94 kts 269°
2026-05-08 18:35 44.56125 -69.69715 8578 ft 94 kts 269°
2026-05-08 18:35 44.56108 -69.70630 8576 ft 94 kts 269°
2026-05-08 18:35 44.56091 -69.71540 8576 ft 93 kts 269°
2026-05-08 18:36 44.56073 -69.72445 8575 ft 92 kts 269°
2026-05-08 18:36 44.56056 -69.73332 8570 ft 92 kts 269°
2026-05-08 18:36 44.56042 -69.74229 8584 ft 93 kts 269°
2026-05-08 18:36 44.56028 -69.75137 8585 ft 93 kts 269°
2026-05-08 18:37 44.56021 -69.76055 8582 ft 94 kts 270°
2026-05-08 18:37 44.56011 -69.76969 8577 ft 94 kts 269°
2026-05-08 18:37 44.55997 -69.77879 8573 ft 93 kts 269°
2026-05-08 18:37 44.55981 -69.78783 8582 ft 93 kts 269°
2026-05-08 18:38 44.55965 -69.79696 8579 ft 94 kts 269°
2026-05-08 18:38 44.55950 -69.80606 8583 ft 93 kts 269°
2026-05-08 18:38 44.55936 -69.81520 8580 ft 94 kts 269°
2026-05-08 18:38 44.55921 -69.82438 8578 ft 94 kts 269°
2026-05-08 18:39 44.55908 -69.83351 8577 ft 94 kts 269°
2026-05-08 18:39 44.55896 -69.84263 8576 ft 93 kts 269°
2026-05-08 18:39 44.55883 -69.85170 8578 ft 93 kts 269°
2026-05-08 18:39 44.55868 -69.86062 8572 ft 92 kts 269°
2026-05-08 18:40 44.55856 -69.86959 8576 ft 92 kts 269°
2026-05-08 18:40 44.55843 -69.87856 8580 ft 92 kts 269°
2026-05-08 18:40 44.55831 -69.88751 8575 ft 92 kts 269°
2026-05-08 18:40 44.55819 -69.89638 8579 ft 91 kts 269°
2026-05-08 18:41 44.55807 -69.90528 8582 ft 91 kts 269°
2026-05-08 18:41 44.55795 -69.91423 8577 ft 92 kts 269°
2026-05-08 18:41 44.55781 -69.92310 8563 ft 90 kts 269°
2026-05-08 18:41 44.55767 -69.93193 8578 ft 91 kts 269°
2026-05-08 18:42 44.55752 -69.94072 8548 ft 89 kts 269°
2026-05-08 18:42 44.55732 -69.94927 8577 ft 87 kts 268°
2026-05-08 18:42 44.55715 -69.95779 8601 ft 88 kts 269°
2026-05-08 18:42 44.55705 -69.96654 8607 ft 91 kts 269°
2026-05-08 18:43 44.55697 -69.97547 8609 ft 92 kts 269°
2026-05-08 18:43 44.55687 -69.98455 8597 ft 93 kts 269°
2026-05-08 18:43 44.55677 -69.99363 8589 ft 93 kts 269°
2026-05-08 18:43 44.55666 -70.00268 8586 ft 93 kts 269°
2026-05-08 18:44 44.55653 -70.01157 8587 ft 92 kts 269°
2026-05-08 18:44 44.55638 -70.02073 8594 ft 94 kts 269°
2026-05-08 18:44 44.55622 -70.02975 8582 ft 93 kts 269°
2026-05-08 18:44 44.55605 -70.03884 8587 ft 92 kts 269°
2026-05-08 18:45 44.55592 -70.04773 8593 ft 93 kts 269°
2026-05-08 18:45 44.55578 -70.05678 8588 ft 93 kts 269°
2026-05-08 18:45 44.55564 -70.06582 8584 ft 93 kts 269°
2026-05-08 18:45 44.55551 -70.07485 8590 ft 93 kts 269°
2026-05-08 18:46 44.55539 -70.08396 8595 ft 95 kts 269°
2026-05-08 18:46 44.55524 -70.09320 8587 ft 95 kts 269°
2026-05-08 18:46 44.55508 -70.10237 8583 ft 94 kts 269°
2026-05-08 18:46 44.55491 -70.11143 8580 ft 92 kts 269°
2026-05-08 18:47 44.55473 -70.12035 8583 ft 91 kts 269°
2026-05-08 18:47 44.55458 -70.12926 8587 ft 92 kts 269°
2026-05-08 18:47 44.55442 -70.13814 8584 ft 91 kts 269°
2026-05-08 18:47 44.55427 -70.14698 8589 ft 91 kts 269°
2026-05-08 18:48 44.55412 -70.15588 8585 ft 91 kts 269°
2026-05-08 18:48 44.55396 -70.16480 8590 ft 92 kts 269°
2026-05-08 18:48 44.55383 -70.17365 8589 ft 92 kts 269°
2026-05-08 18:48 44.55367 -70.18260 8593 ft 92 kts 269°
2026-05-08 18:49 44.55350 -70.19163 8590 ft 92 kts 269°
2026-05-08 18:49 44.55338 -70.20058 8578 ft 91 kts 270°
2026-05-08 18:49 44.55323 -70.20948 8591 ft 92 kts 269°
2026-05-08 18:49 44.55307 -70.21849 8587 ft 92 kts 269°
2026-05-08 18:50 44.55289 -70.22752 8592 ft 93 kts 269°
2026-05-08 18:50 44.55279 -70.23664 8594 ft 94 kts 270°
2026-05-08 18:50 44.55266 -70.24575 8586 ft 93 kts 269°
2026-05-08 18:50 44.55245 -70.25476 8597 ft 93 kts 268°
2026-05-08 18:51 44.55226 -70.26385 8585 ft 93 kts 269°
2026-05-08 18:51 44.55209 -70.27290 8581 ft 92 kts 269°
2026-05-08 18:51 44.55193 -70.28173 8585 ft 92 kts 269°
2026-05-08 18:51 44.55178 -70.29064 8583 ft 91 kts 269°
2026-05-08 18:52 44.55162 -70.29960 8592 ft 92 kts 269°
2026-05-08 18:52 44.55149 -70.30859 8585 ft 92 kts 269°
2026-05-08 18:52 44.55131 -70.31746 8578 ft 90 kts 269°
2026-05-08 18:52 44.55113 -70.32623 8590 ft 90 kts 269°
2026-05-08 18:53 44.55095 -70.33512 8583 ft 91 kts 270°
2026-05-08 18:53 44.55077 -70.34395 8585 ft 91 kts 269°
2026-05-08 18:53 44.55059 -70.35275 8584 ft 90 kts 269°
2026-05-08 18:53 44.55041 -70.36162 8603 ft 92 kts 269°
2026-05-08 18:54 44.55024 -70.37067 8604 ft 94 kts 269°
2026-05-08 18:54 44.55005 -70.37985 8597 ft 94 kts 269°
2026-05-08 18:54 44.54984 -70.38890 8598 ft 94 kts 269°
2026-05-08 18:54 44.54964 -70.39803 8598 ft 94 kts 269°
2026-05-08 18:55 44.54921 -70.41622 8591 ft 92 kts 269°
2026-05-08 18:55 44.54899 -70.42511 8586 ft 90 kts 269°
2026-05-08 18:55 44.54882 -70.43383 8590 ft 89 kts 269°
2026-05-08 18:56 44.54861 -70.44254 8604 ft 90 kts 269°
2026-05-08 18:56 44.54840 -70.45144 8610 ft 92 kts 269°
2026-05-08 18:56 44.54822 -70.46048 8597 ft 93 kts 269°
2026-05-08 18:56 44.54803 -70.46949 8591 ft 92 kts 269°
2026-05-08 18:57 44.54783 -70.47838 8595 ft 91 kts 269°
2026-05-08 18:57 44.54765 -70.48428 8600 ft 92 kts 269°
2026-05-08 18:57 44.54735 -70.49624 8598 ft 92 kts 269°
2026-05-08 18:57 44.54714 -70.50520 8604 ft 92 kts 269°
2026-05-08 18:58 44.54694 -70.51427 8597 ft 93 kts 269°
2026-05-08 18:58 44.54674 -70.52326 8597 ft 93 kts 269°
2026-05-08 18:58 44.54655 -70.53232 8595 ft 93 kts 269°
2026-05-08 18:58 44.54634 -70.54133 8593 ft 92 kts 269°
2026-05-08 18:59 44.54611 -70.55032 8594 ft 92 kts 269°
2026-05-08 18:59 44.54588 -70.55927 8593 ft 92 kts 269°
2026-05-08 18:59 44.54565 -70.56821 8593 ft 91 kts 269°
2026-05-08 18:59 44.54546 -70.57715 8595 ft 91 kts 269°
2026-05-08 19:00 44.54532 -70.58304 8595 ft 91 kts 269°
2026-05-08 19:00 44.54500 -70.59493 8589 ft 91 kts 269°
2026-05-08 19:00 44.54476 -70.60373 8596 ft 90 kts 269°
2026-05-08 19:00 44.54453 -70.61262 8610 ft 93 kts 269°
2026-05-08 19:01 44.54431 -70.62164 8608 ft 94 kts 269°
2026-05-08 19:01 44.54409 -70.63079 8597 ft 94 kts 269°
2026-05-08 19:01 44.54386 -70.63991 8601 ft 93 kts 269°
2026-05-08 19:01 44.54361 -70.64901 8597 ft 92 kts 269°
2026-05-08 19:02 44.54335 -70.65792 8590 ft 90 kts 269°
2026-05-08 19:02 44.54313 -70.66667 8588 ft 90 kts 269°
2026-05-08 19:02 44.54291 -70.67543 8594 ft 90 kts 270°
2026-05-08 19:02 44.54268 -70.68423 8599 ft 90 kts 269°
2026-05-08 19:03 44.54242 -70.69300 8600 ft 90 kts 269°
2026-05-08 19:03 44.54217 -70.70180 8610 ft 91 kts 269°
2026-05-08 19:03 44.54192 -70.71057 8606 ft 91 kts 269°
2026-05-08 19:03 44.54168 -70.71943 8602 ft 91 kts 269°
2026-05-08 19:04 44.54144 -70.72823 8594 ft 89 kts 269°
2026-05-08 19:04 44.54123 -70.73683 8592 ft 87 kts 269°
2026-05-08 19:04 44.54099 -70.74533 8610 ft 87 kts 269°
2026-05-08 19:04 44.54069 -70.75379 8611 ft 87 kts 268°
2026-05-08 19:05 44.54043 -70.76236 8616 ft 89 kts 269°
2026-05-08 19:05 44.54016 -70.77104 8611 ft 89 kts 269°
2026-05-08 19:05 44.53989 -70.77971 8608 ft 89 kts 269°
2026-05-08 19:05 44.53961 -70.78832 8607 ft 88 kts 269°
2026-05-08 19:06 44.53933 -70.79692 8614 ft 89 kts 269°
2026-05-08 19:06 44.53905 -70.80568 8622 ft 91 kts 270°
2026-05-08 19:06 44.53880 -70.81468 8614 ft 93 kts 269°
2026-05-08 19:06 44.53853 -70.82377 8611 ft 94 kts 269°
2026-05-08 19:07 44.53827 -70.83293 8598 ft 94 kts 269°
2026-05-08 19:07 44.53802 -70.84195 8588 ft 92 kts 269°
2026-05-08 19:07 44.53778 -70.85082 8597 ft 91 kts 269°
2026-05-08 19:07 44.53751 -70.85963 8604 ft 90 kts 269°
2026-05-08 19:08 44.53730 -70.86838 8608 ft 92 kts 270°
2026-05-08 19:08 44.53705 -70.87733 8603 ft 92 kts 269°
2026-05-08 19:08 44.53675 -70.88626 8608 ft 92 kts 270°
2026-05-08 19:08 44.53646 -70.89529 8617 ft 93 kts 269°
2026-05-08 19:09 44.53616 -70.90443 8619 ft 95 kts 270°
2026-05-08 19:09 44.53586 -70.91366 8602 ft 95 kts 269°
2026-05-08 19:09 44.53555 -70.92278 8597 ft 93 kts 269°
2026-05-08 19:09 44.53525 -70.93181 8611 ft 93 kts 269°
2026-05-08 19:10 44.53497 -70.94091 8624 ft 94 kts 269°
2026-05-08 19:10 44.53469 -70.95000 8592 ft 93 kts 269°
2026-05-08 19:10 44.53447 -70.95893 8593 ft 90 kts 269°
2026-05-08 19:10 44.53423 -70.96762 8604 ft 89 kts 270°
2026-05-08 19:11 44.53395 -70.97634 8597 ft 90 kts 269°
2026-05-08 19:11 44.53362 -70.98503 8619 ft 91 kts 269°
2026-05-08 19:11 44.53329 -70.99406 8629 ft 94 kts 269°
2026-05-08 19:11 44.53299 -71.00325 8618 ft 96 kts 269°
2026-05-08 19:12 44.53266 -71.01258 8608 ft 96 kts 269°
2026-05-08 19:12 44.53234 -71.02187 8603 ft 95 kts 270°
2026-05-08 19:12 44.53200 -71.03103 8602 ft 93 kts 269°
2026-05-08 19:12 44.53165 -71.04009 8604 ft 93 kts 269°
2026-05-08 19:13 44.53142 -71.04608 8598 ft 92 kts 269°
2026-05-08 19:13 44.53109 -71.05502 8599 ft 91 kts 269°
2026-05-08 19:13 44.53072 -71.06387 8597 ft 91 kts 269°
2026-05-08 19:13 44.53035 -71.07266 8604 ft 90 kts 269°
2026-05-08 19:14 44.52998 -71.08147 8605 ft 91 kts 269°
2026-05-08 19:14 44.52963 -71.09031 8612 ft 91 kts 269°
2026-05-08 19:14 44.52929 -71.09925 8609 ft 92 kts 270°
2026-05-08 19:14 44.52897 -71.10820 8604 ft 92 kts 269°
2026-05-08 19:15 44.52861 -71.11712 8600 ft 91 kts 269°
2026-05-08 19:15 44.52822 -71.12594 8606 ft 91 kts 270°
2026-05-08 19:15 44.52782 -71.13482 8611 ft 91 kts 269°
2026-05-08 19:15 44.52744 -71.14368 8605 ft 91 kts 270°
2026-05-08 19:16 44.52706 -71.15253 8607 ft 91 kts 269°
2026-05-08 19:16 44.52670 -71.16144 8608 ft 92 kts 269°
2026-05-08 19:16 44.52635 -71.17033 8598 ft 91 kts 269°
2026-05-08 19:16 44.52601 -71.17903 8596 ft 89 kts 269°
2026-05-08 19:17 44.52566 -71.18754 8604 ft 89 kts 270°
2026-05-08 19:17 44.52534 -71.19625 8611 ft 90 kts 270°
2026-05-08 19:17 44.52495 -71.20506 8611 ft 91 kts 269°
2026-05-08 19:17 44.52455 -71.21392 8612 ft 92 kts 269°
2026-05-08 19:18 44.52416 -71.22285 8611 ft 92 kts 269°
2026-05-08 19:18 44.52378 -71.23180 8606 ft 92 kts 269°
2026-05-08 19:18 44.52338 -71.24075 8600 ft 91 kts 269°
2026-05-08 19:18 44.52300 -71.24963 8607 ft 91 kts 269°
2026-05-08 19:19 44.52265 -71.25849 8604 ft 91 kts 269°
2026-05-08 19:19 44.52228 -71.26732 8603 ft 91 kts 269°
2026-05-08 19:19 44.52190 -71.27613 8607 ft 91 kts 269°
2026-05-08 19:19 44.52151 -71.28496 8610 ft 91 kts 269°
2026-05-08 19:20 44.52114 -71.29378 8603 ft 90 kts 269°
2026-05-08 19:20 44.52088 -71.29956 8601 ft 90 kts 270°
2026-05-08 19:20 44.52035 -71.31103 8598 ft 88 kts 269°
2026-05-08 19:20 44.51995 -71.31949 8574 ft 85 kts 269°
2026-05-08 19:21 44.51969 -71.32748 8591 ft 81 kts 269°
2026-05-08 19:21 44.51929 -71.33540 8620 ft 83 kts 269°
2026-05-08 19:21 44.51889 -71.34357 8619 ft 84 kts 269°
2026-05-08 19:21 44.51850 -71.35178 8609 ft 84 kts 269°
2026-05-08 19:22 44.51809 -71.35970 8569 ft 79 kts 269°
2026-05-08 19:22 44.51764 -71.36722 8596 ft 77 kts 269°
2026-05-08 19:22 44.51724 -71.37449 8613 ft 74 kts 269°
2026-05-08 19:22 44.51677 -71.38192 8621 ft 79 kts 269°
2026-05-08 19:23 44.51634 -71.38961 8607 ft 79 kts 270°
2026-05-08 19:23 44.51591 -71.39723 8601 ft 77 kts 269°
2026-05-08 19:23 44.51547 -71.40473 8604 ft 77 kts 270°
2026-05-08 19:23 44.51503 -71.41221 8631 ft 78 kts 269°
2026-05-08 19:24 44.51464 -71.42002 8644 ft 83 kts 270°
2026-05-08 19:24 44.51429 -71.42820 8629 ft 84 kts 269°
2026-05-08 19:24 44.51396 -71.43636 8623 ft 85 kts 270°
2026-05-08 19:24 44.51359 -71.44464 8629 ft 86 kts 270°
2026-05-08 19:25 44.51323 -71.45303 8616 ft 86 kts 270°
2026-05-08 19:25 44.51285 -71.46131 8616 ft 85 kts 270°
2026-05-08 19:25 44.51248 -71.46956 8612 ft 84 kts 270°
2026-05-08 19:25 44.51210 -71.47768 8607 ft 83 kts 270°
2026-05-08 19:26 44.51170 -71.48565 8606 ft 81 kts 270°
2026-05-08 19:26 44.51131 -71.49351 8611 ft 81 kts 269°
2026-05-08 19:26 44.51091 -71.50136 8609 ft 81 kts 270°
2026-05-08 19:26 44.51050 -71.50917 8611 ft 81 kts 269°
2026-05-08 19:27 44.51008 -71.51705 8609 ft 81 kts 269°
2026-05-08 19:27 44.50965 -71.52487 8610 ft 81 kts 269°
2026-05-08 19:27 44.50924 -71.53262 8620 ft 82 kts 270°
2026-05-08 19:27 44.50884 -71.54057 8611 ft 82 kts 269°
2026-05-08 19:28 44.50844 -71.54856 8618 ft 83 kts 270°
2026-05-08 19:28 44.50807 -71.55674 8624 ft 85 kts 270°
2026-05-08 19:28 44.50769 -71.56506 8617 ft 86 kts 270°
2026-05-08 19:28 44.50732 -71.57343 8616 ft 86 kts 270°
2026-05-08 19:29 44.50695 -71.58184 8612 ft 86 kts 270°
2026-05-08 19:29 44.50657 -71.59009 8608 ft 86 kts 270°
2026-05-08 19:29 44.50620 -71.59841 8608 ft 86 kts 270°
2026-05-08 19:29 44.50584 -71.60679 8608 ft 86 kts 270°
2026-05-08 19:30 44.50547 -71.61525 8615 ft 88 kts 269°
2026-05-08 19:30 44.50509 -71.62388 8621 ft 89 kts 270°
2026-05-08 19:30 44.50471 -71.63259 8612 ft 90 kts 269°
2026-05-08 19:30 44.50438 -71.64130 8610 ft 89 kts 269°
2026-05-08 19:31 44.50404 -71.64993 8611 ft 89 kts 269°
2026-05-08 19:31 44.50370 -71.65859 8619 ft 90 kts 270°
2026-05-08 19:31 44.50333 -71.66723 8618 ft 89 kts 269°
2026-05-08 19:31 44.50295 -71.67587 8617 ft 89 kts 270°
2026-05-08 19:32 44.50261 -71.68459 8623 ft 90 kts 270°
2026-05-08 19:32 44.50226 -71.69343 8620 ft 91 kts 270°
2026-05-08 19:32 44.50189 -71.70228 8605 ft 90 kts 270°
2026-05-08 19:32 44.50153 -71.71100 8606 ft 90 kts 270°
2026-05-08 19:33 44.50113 -71.71972 8614 ft 90 kts 270°
2026-05-08 19:33 44.50075 -71.72848 8621 ft 91 kts 269°
2026-05-08 19:33 44.50038 -71.73727 8608 ft 89 kts 269°
2026-05-08 19:33 44.50007 -71.74586 8611 ft 88 kts 270°
2026-05-08 19:34 44.49974 -71.75447 8641 ft 90 kts 270°
2026-05-08 19:34 44.49934 -71.76336 8640 ft 92 kts 270°
2026-05-08 19:34 44.49897 -71.77240 8629 ft 93 kts 270°
2026-05-08 19:34 44.49860 -71.78147 8623 ft 93 kts 270°
2026-05-08 19:35 44.49817 -71.79044 8619 ft 92 kts 270°
2026-05-08 19:35 44.49780 -71.79923 8612 ft 91 kts 270°
2026-05-08 19:35 44.49741 -71.80809 8628 ft 91 kts 269°
2026-05-08 19:35 44.49703 -71.81703 8634 ft 92 kts 270°
2026-05-08 19:36 44.49663 -71.82600 8624 ft 92 kts 270°
2026-05-08 19:36 44.49624 -71.83494 8627 ft 92 kts 270°
2026-05-08 19:36 44.49588 -71.84395 8624 ft 93 kts 270°
2026-05-08 19:36 44.49553 -71.85296 8625 ft 93 kts 270°
2026-05-08 19:37 44.49516 -71.86197 8615 ft 92 kts 270°
2026-05-08 19:37 44.49479 -71.87081 8615 ft 90 kts 270°
2026-05-08 19:37 44.49440 -71.87943 8618 ft 89 kts 269°
2026-05-08 19:37 44.49402 -71.88811 8621 ft 89 kts 270°
2026-05-08 19:38 44.49365 -71.89680 8622 ft 89 kts 269°
2026-05-08 19:38 44.49333 -71.90562 8625 ft 91 kts 270°
2026-05-08 19:38 44.49298 -71.91444 8632 ft 91 kts 270°
2026-05-08 19:38 44.49267 -71.92337 8627 ft 92 kts 269°
2026-05-08 19:39 44.49234 -71.93228 8632 ft 92 kts 270°
2026-05-08 19:39 44.49201 -71.94127 8625 ft 93 kts 269°
2026-05-08 19:39 44.49170 -71.95027 8627 ft 92 kts 270°
2026-05-08 19:39 44.49136 -71.95929 8623 ft 92 kts 270°
2026-05-08 19:40 44.49098 -71.96826 8622 ft 92 kts 269°
2026-05-08 19:40 44.49063 -71.97721 8621 ft 92 kts 270°
2026-05-08 19:40 44.49030 -71.98617 8627 ft 93 kts 270°
2026-05-08 19:40 44.48996 -71.99502 8630 ft 92 kts 270°
2026-05-08 19:41 44.48962 -72.00407 8629 ft 94 kts 270°
2026-05-08 19:41 44.48929 -72.01309 8616 ft 92 kts 270°
2026-05-08 19:41 44.48894 -72.02197 8609 ft 90 kts 270°
2026-05-08 19:41 44.48855 -72.03067 8620 ft 90 kts 270°
2026-05-08 19:42 44.48823 -72.03932 8613 ft 88 kts 269°
2026-05-08 19:42 44.48781 -72.04787 8622 ft 88 kts 269°
2026-05-08 19:42 44.48732 -72.05648 8639 ft 90 kts 269°
2026-05-08 19:42 44.48682 -72.06528 8637 ft 92 kts 269°
2026-05-08 19:43 44.48632 -72.07409 8628 ft 92 kts 269°
2026-05-08 19:43 44.48580 -72.08301 8625 ft 92 kts 269°
2026-05-08 19:43 44.48529 -72.09185 8618 ft 91 kts 269°
2026-05-08 19:44 44.48424 -72.10899 8624 ft 92 kts 269°
2026-05-08 19:44 44.48372 -72.11786 8621 ft 91 kts 269°
2026-05-08 19:44 44.48321 -72.12669 8630 ft 91 kts 269°
2026-05-08 19:44 44.48271 -72.13554 8624 ft 91 kts 269°
2026-05-08 19:45 44.48221 -72.14434 8624 ft 90 kts 269°
2026-05-08 19:45 44.48170 -72.15335 8548 ft 95 kts 269°
2026-05-08 19:45 44.48120 -72.16262 8501 ft 95 kts 269°
2026-05-08 19:45 44.48063 -72.17178 8474 ft 93 kts 269°
2026-05-08 19:46 44.48000 -72.18075 8463 ft 91 kts 269°
2026-05-08 19:46 44.47941 -72.18952 8472 ft 91 kts 268°
2026-05-08 19:46 44.47835 -72.20726 8465 ft 92 kts 269°
2026-05-08 19:47 44.47783 -72.21612 8466 ft 90 kts 269°
2026-05-08 19:47 44.47727 -72.22491 8462 ft 90 kts 269°
2026-05-08 19:47 44.47668 -72.23359 8461 ft 88 kts 269°
2026-05-08 19:47 44.47612 -72.24220 8460 ft 88 kts 268°
2026-05-08 19:48 44.47562 -72.25079 8392 ft 90 kts 269°
2026-05-08 19:48 44.47514 -72.25940 8296 ft 89 kts 269°
2026-05-08 19:48 44.47461 -72.26816 8200 ft 91 kts 269°
2026-05-08 19:48 44.47407 -72.27699 8078 ft 92 kts 269°
2026-05-08 19:49 44.47355 -72.28596 7989 ft 92 kts 269°
2026-05-08 19:49 44.47296 -72.29484 7878 ft 92 kts 269°
2026-05-08 19:49 44.47233 -72.30386 7745 ft 92 kts 269°
2026-05-08 19:49 44.47169 -72.31286 7577 ft 94 kts 269°
2026-05-08 19:50 44.47103 -72.32185 7524 ft 90 kts 269°
2026-05-08 19:50 44.47036 -72.33076 7388 ft 94 kts 269°
2026-05-08 19:50 44.46967 -72.33990 7280 ft 94 kts 269°
2026-05-08 19:50 44.46901 -72.34901 7157 ft 94 kts 270°
2026-05-08 19:51 44.46856 -72.35821 7049 ft 95 kts 271°
2026-05-08 19:51 44.46816 -72.36739 6968 ft 95 kts 271°
2026-05-08 19:51 44.46781 -72.37642 6884 ft 94 kts 272°
2026-05-08 19:51 44.46746 -72.38556 6833 ft 93 kts 272°
2026-05-08 19:52 44.46710 -72.39467 6736 ft 96 kts 272°
2026-05-08 19:52 44.46677 -72.40401 6654 ft 97 kts 272°
2026-05-08 19:52 44.46647 -72.41351 6606 ft 96 kts 272°
2026-05-08 19:52 44.46616 -72.42286 6484 ft 98 kts 272°
2026-05-08 19:53 44.46590 -72.43253 6393 ft 98 kts 272°
2026-05-08 19:53 44.46559 -72.44196 6328 ft 97 kts 272°
2026-05-08 19:53 44.46526 -72.45147 6279 ft 98 kts 272°
2026-05-08 19:53 44.46493 -72.46078 6269 ft 96 kts 272°
2026-05-08 19:54 44.46457 -72.47019 6212 ft 97 kts 272°
2026-05-08 19:54 44.46419 -72.47956 6164 ft 95 kts 272°
2026-05-08 19:54 44.46380 -72.48890 6088 ft 97 kts 272°
2026-05-08 19:54 44.46338 -72.49790 6242 ft 89 kts 272°
2026-05-08 19:55 44.46296 -72.50666 6297 ft 90 kts 272°
2026-05-08 19:55 44.46255 -72.51518 6416 ft 89 kts 272°
2026-05-08 19:55 44.46215 -72.52382 6479 ft 92 kts 272°
2026-05-08 19:55 44.46181 -72.53306 6471 ft 97 kts 272°
2026-05-08 19:56 44.46149 -72.54259 6478 ft 99 kts 272°
2026-05-08 19:56 44.46122 -72.55223 6447 ft 98 kts 272°
2026-05-08 19:56 44.46092 -72.56167 6457 ft 96 kts 272°
2026-05-08 19:56 44.46057 -72.57093 6460 ft 97 kts 272°
2026-05-08 19:57 44.46022 -72.58029 6464 ft 96 kts 272°
2026-05-08 19:57 44.45988 -72.58973 6490 ft 98 kts 272°
2026-05-08 19:57 44.45958 -72.59950 6505 ft 102 kts 272°
2026-05-08 19:57 44.45928 -72.60947 6488 ft 101 kts 272°
2026-05-08 19:58 44.45898 -72.61916 6469 ft 98 kts 272°
2026-05-08 19:58 44.45867 -72.62857 6440 ft 95 kts 272°
2026-05-08 19:58 44.45838 -72.63752 6446 ft 91 kts 272°
2026-05-08 19:58 44.45802 -72.64643 6488 ft 94 kts 272°
2026-05-08 19:59 44.45768 -72.65564 6475 ft 95 kts 272°
2026-05-08 19:59 44.45738 -72.66484 6477 ft 95 kts 272°
2026-05-08 19:59 44.45710 -72.67391 6467 ft 94 kts 272°
2026-05-08 19:59 44.45681 -72.68307 6480 ft 94 kts 272°
2026-05-08 20:00 44.45651 -72.69229 6478 ft 95 kts 272°
2026-05-08 20:00 44.45622 -72.70160 6473 ft 96 kts 272°
2026-05-08 20:00 44.45592 -72.71082 6459 ft 94 kts 272°
2026-05-08 20:00 44.45558 -72.71989 6465 ft 94 kts 272°
2026-05-08 20:01 44.45528 -72.72904 6481 ft 95 kts 273°
2026-05-08 20:01 44.45500 -72.73830 6461 ft 94 kts 272°
2026-05-08 20:01 44.45467 -72.74743 6471 ft 94 kts 272°
2026-05-08 20:01 44.45434 -72.75661 6474 ft 94 kts 272°
2026-05-08 20:02 44.45403 -72.76562 6469 ft 94 kts 272°
2026-05-08 20:02 44.45373 -72.77485 6462 ft 93 kts 272°
2026-05-08 20:02 44.45354 -72.78380 6465 ft 93 kts 272°
2026-05-08 20:02 44.45317 -72.79274 6466 ft 92 kts 271°
2026-05-08 20:03 44.45277 -72.80173 6471 ft 92 kts 271°
2026-05-08 20:03 44.45271 -72.81070 6513 ft 90 kts 282°
2026-05-08 20:03 44.45490 -72.81880 6523 ft 91 kts 299°
2026-05-08 20:03 44.45870 -72.82578 6568 ft 89 kts 313°
2026-05-08 20:04 44.46374 -72.83098 6536 ft 92 kts 323°
2026-05-08 20:04 44.46927 -72.83538 6547 ft 90 kts 323°
2026-05-08 20:04 44.47454 -72.84049 6471 ft 94 kts 320°
2026-05-08 20:04 44.47957 -72.84553 6601 ft 86 kts 319°
2026-05-08 20:05 44.48453 -72.85102 6551 ft 94 kts 316°
2026-05-08 20:05 44.48966 -72.85686 6526 ft 97 kts 316°
2026-05-08 20:05 44.49492 -72.86288 6468 ft 98 kts 317°
2026-05-08 20:05 44.50002 -72.86886 6495 ft 92 kts 315°
2026-05-08 20:06 44.50476 -72.87434 6416 ft 88 kts 316°
2026-05-08 20:06 44.50954 -72.87976 6298 ft 88 kts 317°
2026-05-08 20:06 44.51415 -72.88530 6185 ft 86 kts 312°
2026-05-08 20:06 44.51716 -72.89243 6080 ft 85 kts 290°
2026-05-08 20:07 44.51799 -72.90062 5927 ft 87 kts 276°
2026-05-08 20:07 44.51736 -72.90893 5781 ft 88 kts 265°
2026-05-08 20:07 44.51570 -72.91738 5661 ft 89 kts 261°
2026-05-08 20:07 44.51389 -72.92561 5537 ft 89 kts 259°
2026-05-08 20:08 44.51196 -72.93392 5394 ft 90 kts 259°
2026-05-08 20:08 44.51018 -72.94228 5262 ft 90 kts 261°
2026-05-08 20:08 44.50850 -72.95067 5131 ft 89 kts 261°
2026-05-08 20:08 44.50744 -72.95629 5026 ft 90 kts 263°
2026-05-08 20:09 44.50584 -72.96480 4903 ft 91 kts 260°
2026-05-08 20:09 44.50387 -72.97325 4839 ft 91 kts 257°
2026-05-08 20:09 44.50171 -72.98150 4751 ft 91 kts 256°
2026-05-08 20:09 44.49954 -72.98986 4642 ft 91 kts 258°
2026-05-08 20:10 44.49763 -72.99837 4572 ft 91 kts 255°
2026-05-08 20:10 44.49529 -73.00659 4473 ft 92 kts 254°
2026-05-08 20:10 44.49310 -73.01501 4379 ft 91 kts 255°
2026-05-08 20:10 44.49091 -73.02337 4254 ft 93 kts 255°
2026-05-08 20:11 44.48901 -73.03186 4169 ft 91 kts 261°
2026-05-08 20:11 44.48767 -73.04053 4065 ft 91 kts 262°
2026-05-08 20:11 44.48604 -73.04909 3960 ft 91 kts 258°
2026-05-08 20:11 44.48401 -73.05753 3851 ft 92 kts 255°
2026-05-08 20:12 44.48196 -73.06607 3746 ft 92 kts 256°
2026-05-08 20:12 44.47982 -73.07446 3641 ft 93 kts 253°
2026-05-08 20:12 44.47759 -73.08289 3550 ft 93 kts 255°
2026-05-08 20:12 44.47587 -73.09148 3455 ft 91 kts 261°
2026-05-08 20:13 44.47457 -73.10026 3346 ft 93 kts 263°
2026-05-08 20:13 44.47367 -73.10910 3226 ft 91 kts 267°
2026-05-08 20:13 44.47293 -73.11803 3084 ft 92 kts 265°
2026-05-08 20:13 44.47213 -73.12690 2963 ft 92 kts 266°
2026-05-08 20:14 44.47148 -73.13596 2852 ft 93 kts 268°
2026-05-08 20:14 44.47096 -73.14485 2691 ft 92 kts 265°
2026-05-08 20:14 44.47062 -73.15397 2554 ft 96 kts 266°
2026-05-08 20:14 44.47050 -73.16328 2482 ft 97 kts 269°
2026-05-08 20:15 44.47058 -73.17246 2466 ft 93 kts 269°
2026-05-08 20:15 44.47074 -73.18173 2408 ft 96 kts 270°
2026-05-08 20:15 44.47175 -73.19100 2423 ft 96 kts 288°
2026-05-08 20:15 44.47605 -73.19813 2377 ft 97 kts 329°
2026-05-08 20:16 44.48280 -73.19948 2259 ft 103 kts 12°
2026-05-08 20:16 44.48885 -73.19445 2105 ft 101 kts 51°
2026-05-08 20:16 44.48991 -73.18544 1928 ft 102 kts 125°
2026-05-08 20:16 44.48366 -73.18152 1746 ft 97 kts 169°
2026-05-08 20:17 44.47745 -73.17884 1596 ft 91 kts 155°
2026-05-08 20:17 44.47239 -73.17360 1458 ft 91 kts 136°
2026-05-08 20:17 44.46776 -73.16741 1368 ft 90 kts 138°
2026-05-08 20:17 44.46322 -73.16138 1303 ft 91 kts 137°
2026-05-08 20:18 44.45853 -73.15549 1325 ft 90 kts 140°
2026-05-08 20:18 44.45375 -73.15028 1296 ft 81 kts 145°
2026-05-08 20:18 44.44922 -73.14585 1203 ft 78 kts 141°
2026-05-08 20:18 44.44759 -73.13910 1102 ft 78 kts 75°
2026-05-08 20:19 44.45108 -73.13394 1021 ft 69 kts 34°
2026-05-08 20:19 44.45509 -73.13021 908 ft 71 kts 29°
2026-05-08 20:19 44.45952 -73.13167 757 ft 72 kts 308°
2026-05-08 20:19 44.46256 -73.13695 590 ft 70 kts 311°
2026-05-08 20:20 44.46580 -73.14195 413 ft 67 kts 306°
2026-05-08 20:20 44.46865 -73.14644 338 ft 53 kts 308°
2026-05-08 20:20 44.47045 -73.14934 332 ft 14 kts 307°
2026-05-08 20:20 44.47027 -73.15048 327 ft 15 kts 220°
2026-05-08 20:21 44.46994 -73.15088 329 ft 0 kts 220°
2026-05-08 20:21 44.46991 -73.15092 329 ft 4 kts 219°
2026-05-08 20:21 44.46942 -73.15151 326 ft 14 kts 221°
2026-05-08 20:22 44.46902 -73.15271 329 ft 10 kts 259°
2026-05-08 20:22 44.46842 -73.15313 331 ft 14 kts 174°
2026-05-08 20:22 44.46729 -73.15290 331 ft 17 kts 172°
2026-05-08 20:22 44.46659 -73.15292 335 ft 9 kts 241°
2026-05-08 20:23 44.46641 -73.15390 334 ft 10 kts 226°
2026-05-08 20:23 44.46591 -73.15414 336 ft 9 kts 192°
2026-05-08 20:23 44.46571 -73.15402 337 ft 0 kts 82°